Simultaneous Nadir Overpasses (SNOs) Predictions

Prediction of SNOs between GOES-17 and METOP-A Satellite Orbit:

Table of predicted SNOs for the next 14.0 days since TLE Epoch: 12/31/2021
Index Date Time (GOES-17) GOES-17 Lat,Lon METOP-A Lat,Lon Distance(km) Time Diff (sec)
1 01/02/2022 16:57:52 -0.03,-137.24 -0.43,-135.29 221.53 80
2 01/03/2022 05:17:21 0.03,-137.24 -0.46,-139.33 239.49 80
3 01/05/2022 16:59:42 -0.03,-137.25 -0.38,-135.59 188.59 80
4 01/06/2022 05:19:21 0.02,-137.25 -0.54,-139.68 277.60 80
5 01/08/2022 17:01:31 -0.02,-137.26 -0.34,-135.90 155.63 80
6 01/09/2022 05:21:21 0.02,-137.26 -0.61,-140.02 315.47 80
7 01/11/2022 17:03:20 -0.02,-137.26 -0.24,-136.19 121.60 80
8 01/12/2022 05:23:20 0.02,-137.26 -0.69,-140.36 354.09 80
